Location: ??????
(41.9623°N, 44.6080°E)
Time: 08:12:18
(UTC+00:00)

Daily predictions for brighter satellites

Satellite Brightness Start Highest point End
(mag) Time Altitude Azimuth Time Altitude Azimuth Time Altitude Azimuth
H-2A R/B 4.5 14:22:40 10° SSW 14:26:05 37° W 14:29:33 10° NNW
Meteor 1-11 4.4 14:23:50 10° N 14:29:36 88° W 14:35:24 10° S
Cosmos 1606 Rocket 3.6 14:25:53 10° S 14:30:15 89° ESE 14:34:41 10° N
FengYun 1-2 T 4.3 14:27:03 10° SSE 14:32:35 60° ENE 14:38:08 10° N
Cosmos 1315 Rocket 4.4 14:30:51 10° SE 14:33:11 15° E 14:35:32 10° NE
Aureole 3 Rocket 3.5 14:32:40 10° SSE 14:36:27 46° E 14:41:38 10° NNE
Meteor 2-16 Rocket 4.4 14:31:35 10° N 14:37:39 67° E 14:43:42 10° SSE
YAOGAN 6 3.8 14:35:52 10° S 14:39:24 49° W 14:43:00 10° NNW
Cosmos 292 Rocket 4.2 14:34:46 10° SSW 14:39:31 68° WNW 14:44:21 10° NNE
H-2A R/B 3.5 14:38:57 10° E 14:42:25 18° ENE 14:45:54 10° NNE
USA 305 4.1 14:38:53 10° NW 14:42:36 27° NNE 14:45:51 12° E
SKYMED 2 4.0 14:39:22 10° NNE 14:43:27 39° E 14:47:30 10° SSE
Cosmos 1455 3.5 14:43:48 10° SE 14:46:36 20° E 14:49:25 10° NE
ATLAS 2AS CENTAUR R/B 4.3 14:41:26 10° NNW 14:46:46 20° NNE 14:51:23 11° ENE
Cosmos 2219 3.2 14:42:44 10° NNW 14:48:30 67° ENE 14:54:12 10° SSE
USA 306 4.0 14:45:22 10° NW 14:49:10 29° NNE 14:52:05 14° E
SMAP 3.8 14:44:43 10° S 14:49:18 59° W 14:53:55 10° NNW
Okean-O 3.5 14:45:45 10° SE 14:49:31 28° ENE 14:53:18 10° N
Cosmos 2082 4.4 14:50:29 10° N 14:55:41 34° ENE 15:00:51 10° ESE
Lacrosse 5 4.0 14:55:42 10° NNW 14:58:28 14° N 15:01:14 10° NE
Cosmos 1656 3.6 14:52:57 10° SSW 14:58:29 84° ESE 15:04:10 10° NNE
Cosmos 44 Rocket 4.1 14:55:18 10° S 14:59:22 29° ESE 15:02:25 16° ENE
Cosmos 1244 Rocket 4.5 14:53:59 10° N 15:00:14 83° E 15:06:31 10° S
Feng Yun 1-1 Rocket 4.4 14:57:17 10° SSE 15:03:11 82° ENE 15:09:08 10° NNW
Cosmos 1953 Rocket 4.3 14:59:19 10° NNW 15:03:40 59° W 15:08:03 10° S
USA 281 3.8 14:57:48 10° SSE 15:04:16 63° WSW 15:10:48 10° NNW
Cosmos 968 Rocket 3.5 14:59:58 10° NNW 15:05:08 58° ENE 15:10:12 10° SSE
Cosmos 2058 Rocket 3.3 15:03:28 10° SSW 15:07:57 74° W 15:12:29 10° N
Cosmos 2369 4.0 15:03:25 10° S 15:08:50 46° ESE 15:14:15 10° NE
Cosmos 1408 3.0 15:08:00 10° N 15:11:27 38° ENE 15:14:54 10° SSE
IRS-1C Rocket 4.0 15:08:05 10° SSE 15:13:20 80° ENE 15:18:39 10° NNW
CZ-4C R/B 4.4 15:12:05 10° NNW 15:16:26 17° NNE 15:19:15 14° NE
CSL-04 Rocket 4.3 15:12:28 10° SE 15:17:24 34° ENE 15:22:18 10° N
SL-08 ROCKET BODY 4.4 15:11:51 10° N 15:17:58 68° E 15:24:07 10° SSE
Cosmos 2227 Rocket 2.2 15:13:58 10° NNW 15:19:40 89° ENE 15:25:19 10° SSE
Cosmos 1076 Rocket 3.8 15:16:52 10° N 15:20:54 40° ENE 15:24:54 10° SSE
Cosmos 2263 Rocket 3.7 15:17:50 10° N 15:21:34 17° NE 15:21:42 17° NE
Cosmos 1689 Rocket 2.3 15:19:34 10° N 15:22:26 65° WNW 15:25:17 10° SSW
Cosmos 1939 Rocket 3.0 15:19:46 10° S 15:23:43 73° WSW 15:27:39 10° NNW
Cosmos 1892 2.7 15:22:55 10° N 15:26:48 83° W 15:30:41 10° S
OAO 2 Rocket 4.2 15:25:22 10° WSW 15:29:58 37° S 15:32:13 24° SE
Cosmos 1697 Rocket 2.6 15:25:43 10° SSW 15:31:19 83° ESE 15:36:59 10° NNE
COSMO-SKYMED 1 3.1 15:27:14 10° N 15:31:32 60° WNW 15:35:48 10° SSW
USA 307 3.2 15:28:55 10° NW 15:33:06 50° NNE 15:34:05 41° ENE
Cosmos 1486 Rocket 4.2 15:29:06 10° NNW 15:34:27 75° WSW 15:39:43 10° SSE
S3M 3.9 15:29:31 10° S 15:35:37 84° E 15:41:49 10° N
USA 308 3.1 15:33:53 10° NW 15:38:05 53° NE 15:38:52 46° ENE
BREEZE-M R/B 4.2 15:35:09 10° NW 15:39:16 46° NNE 15:42:10 30° ENE
Cosmos 2315 Rocket 4.2 15:33:27 10° SSE 15:39:17 45° E 15:45:07 10° NNE
Helios 1A Rocket 3.1 15:36:33 10° S 15:40:39 72° WSW 15:44:45 10° NNW
CZ-4B R/B 4.4 15:39:07 10° NNW 15:40:56 14° WNW 15:42:42 10° WSW
YAOGAN 1 2.4 15:37:45 10° SSE 15:42:04 79° ENE 15:46:25 10° N
Cosmos 1825 2.1 15:38:57 10° N 15:42:36 60° ENE 15:42:36 60° ENE
Atlas Centaur 2 4.0 15:35:30 10° WSW 15:42:56 37° S 15:47:29 22° SE
Meteor 2-1 Rocket 4.1 15:38:31 10° S 15:44:01 86° W 15:49:35 10° N
Cosmos 1503 Rocket 3.9 15:39:25 10° NNW 15:44:41 77° ENE 15:49:15 14° SSE
Cosmos 1812 Rocket 3.4 15:44:26 10° S 15:48:49 86° E 15:53:13 10° N
CZ-2D R/B 4.2 15:46:02 10° S 15:49:43 47° W 15:53:24 10° NNW
GPS 2-04 Rocket1 4.0 15:46:34 10° SW 15:50:07 29° S 15:50:13 29° SSE
DMSP B5D1-3 4.4 15:46:08 10° NNE 15:51:18 74° ESE 15:56:27 10° S
CZ-4 R/B 1.6 15:47:53 10° S 15:51:45 64° W 15:55:35 10° NNW
Cosmos 1980 Rocket 2.0 15:49:20 10° SSW 15:54:54 68° ESE 15:57:31 32° NE
Cosmos 1354 Rocket 3.9 15:52:09 10° NNW 15:57:27 86° ENE 16:00:30 26° SSE
SJ-11-01 4.1 15:57:09 38° SSE 15:58:55 77° ENE 16:03:36 10° N
Cosmos 2297 Rocket 3.8 15:53:51 10° NW 15:58:57 35° WSW 16:04:01 10° S
CSL-04 Debris 4.0 15:54:44 10° SSE 16:00:09 82° ENE 16:05:39 10° NNW
CZ-2C R/B 3.4 15:54:30 10° S 16:00:19 77° WSW 16:05:58 10° NNW
Cosmos 1346 Rocket 4.0 15:57:08 10° NNW 16:00:56 43° W 16:04:43 10° SSW
Cosmos 2058 3.9 15:57:02 10° NNW 16:00:59 46° W 16:04:54 10° SSW
Timation 1 Rocket 4.2 15:55:03 10° NNW 16:01:06 71° ENE 16:03:05 43° SE
SL-4 R/B 3.2 15:58:39 10° NW 16:00:58 28° NNW 16:00:58 28° NNW
Cosmos 1315 Rocket 4.3 16:05:41 10° SW 16:09:22 37° WNW 16:13:07 10° N
Geosat 4.0 16:12:41 40° NNE 16:14:30 78° WNW 16:19:31 10° SSW
NOSS 3-4 (A) 3.9 16:10:28 10° NNW 16:17:21 56° NE 16:18:11 53° ENE
NOSS 3-4 (C) 3.9 16:10:35 10° NNW 16:17:28 55° NE 16:18:15 53° ENE
SeaSat 1 3.4 16:20:51 36° N 16:20:51 36° N 16:23:57 10° NNW
H-2A R/B 2.4 16:15:54 10° S 16:21:14 70° WSW 16:26:42 10° NNW
Cosmos 1455 4.4 16:18:52 10° SW 16:22:02 25° WNW 16:25:15 10° NNW
USA 305 3.7 16:18:40 10° NW 16:22:01 51° WNW 16:22:01 51° WNW
USA 215 4.2 16:22:49 31° NNE 16:23:22 32° NNE 16:29:00 10° NW
Cosmos 2278 4.1 16:22:43 10° SW 16:28:21 63° WNW 16:30:46 34° N
USA 306 4.0 16:25:12 10° WNW 16:28:15 43° WNW 16:28:15 43° WNW
MOS 1 Rocket 4.2 16:25:33 10° N 16:30:08 49° WNW 16:34:58 10° SSW
GEOS 3 Rocket 3.9 16:36:12 63° NNW 16:36:12 63° NNW 16:40:43 10° NW
Milstar 3 4.1 16:30:01 10° WSW 16:35:20 25° S 16:36:13 24° S
ARGOS 3.3 16:35:50 67° SW 16:36:12 70° WSW 16:41:39 10° NNW
ATLAS 2AS CENTAUR R/B 2.9 16:32:06 10° NNW 16:38:50 57° NNE 16:38:50 57° NNE
Lacrosse 5 3.9 16:38:54 10° NNW 16:41:00 19° N 16:41:00 19° N
Cosmos 2263 Rocket 3.6 17:00:30 10° NNW 17:03:24 31° NNW 17:03:24 31° NNW
CZ-4C R/B 3.7 16:59:43 10° NNW 17:04:27 39° N 17:04:27 39° N
Atlas Centaur 2 4.4 17:24:43 10° WSW 17:30:04 29° SW 17:30:04 29° SW
Cosmos 1980 Rocket 4.4 17:35:22 10° W 17:39:22 20° NW 17:39:22 20° NW
